This is the latest recevied weather packets stored in our database for station/object K9COE-11. If no packets are shown the sender has not sent any weather packets the latest 10 day(s).
| Time | Temp. | Humidity | Pressure | Rain* | Wind** | Luminosity | Snow |
|---|---|---|---|---|---|---|---|
| 1778032082 | 16.67° C | 63% | - | 0 mm | - | - | - |
| 1778031830 | 16.11° C | 62% | - | 0 mm | - | - | - |
| 1778031572 | 16.11° C | 62% | - | 0 mm | - | - | - |
| 1778031442 | 16.67° C | 62% | - | 0 mm | - | - | - |
| 1778031190 | 16.11° C | 62% | - | 0 mm | - | - | - |
| 1778030811 | 16.11° C | 61% | - | 0 mm | - | - | - |
| 1778030653 | 16.11° C | 62% | - | 0 mm | - | - | - |
| 1778030553 | 16.11° C | 62% | - | 0 mm | - | - | - |
| 1778030295 | 16.11° C | 62% | - | 0 mm | - | - | - |
| 1778030166 | 16.67° C | 62% | - | 0 mm | - | - | - |
| 1778030042 | 16.67° C | 62% | - | 0 mm | - | - | - |
| 1778029666 | 16.67° C | 62% | - | 0 mm | - | - | - |
| 1778029538 | 16.11° C | 62% | - | 0 mm | - | - | - |
| 1778029285 | 16.67° C | 63% | - | 0 mm | - | - | - |
| 1778028519 | 17.78° C | 60% | - | 0 mm | - | - | - |
| 1778027882 | 18.33° C | 58% | - | 0 mm | - | - | - |
| 1778027753 | 17.78° C | 58% | - | 0 mm | - | - | - |
| 1778027495 | 18.33° C | 58% | - | 0 mm | - | - | - |
| 1778026849 | 18.33° C | 53% | - | 0 mm | - | - | - |
| 1778026329 | 18.33° C | 51% | - | 0 mm | - | - | - |
| 1778026071 | 18.33° C | 51% | - | 0 mm | - | - | - |
| 1778025434 | 18.89° C | 49% | - | 0 mm | - | - | - |
| 1778025175 | 18.89° C | 50% | - | 0 mm | - | - | - |
| 1778025046 | 18.89° C | 50% | - | 0 mm | - | - | - |
| 1778024917 | 18.89° C | 51% | - | 0 mm | - | - | - |
* Rain latest 24 hours (hover to see other rain measurements)
** Current wind speed in m/s (hover to see current wind gust speed)